STARLINK-36172 (67020 NORAD) Tracking and Keplerian Element Data

This shows tracking and keplerian element data for the satellite.

Feedback or suggestion? Click here.




ElementValue
Catalog67020
NameSTARLINK-36172
Epoch Orbit143
Epoch Day354.25003472
Epoch Year2025
RAAN301.9412
Inclination69.9935
Eccentricity0.0003912
Argument of Perigee273.5843
Mean Anonmoly332.4209
Mean Motion15.92811067
Decay Rate-0.01286154
L11 67020U 25293T 25354.25003472 -.01286154 48487-3 -37232-2 0 9990
L22 67020 69.9935 301.9412 0003912 273.5843 332.4209 15.92811067 1436



Live tracking and technical data element details for STARLINK-36172 (NORAD 67020). STARLINK-36172 can be tracked NOW for your location showing map with azimuth and elevation plus other details from your city location.







IsCatalogInMostPopularTable: catalog: 67020, numindb: 33
Update: records affected: 1



GetName: 67020 STARLINK-36172

Hit Count: updated at: Tue, 17 Feb 2026 12:50:37 GMT